Location: Holcomb Observatory and Planetarium
(39.8415°N, 86.1714°W)
Time: 03:03:09
(UTC-05:00)

Hubble Space Telescope - Visible Passes

Search period start: 08 February 2016 00:00
Search period end: 18 February 2016 00:00
Orbit: 540 x 544 km, 28.5° (Epoch: 07 February)

Date Brightness Start Highest point End Pass type
(mag) Time Alt. Az. Time Alt. Az. Time Alt. Az.
11 Feb 3.3 20:07:58 10° S 20:08:46 11° S 20:08:46 11° S visible
12 Feb 3.0 19:57:53 10° SSW 19:59:51 13° SSE 20:00:00 13° SSE visible
13 Feb 2.9 19:48:00 10° SSW 19:50:17 14° S 19:51:11 14° SSE visible
14 Feb 2.9 19:38:14 10° SSW 19:40:45 16° S 19:42:22 13° SSE visible
15 Feb 2.9 19:28:32 10° SW 19:31:11 16° S 19:33:33 11° SE visible
16 Feb 2.9 19:18:55 10° SW 19:21:38 17° S 19:24:20 10° SE visible
16 Feb 3.7 21:00:07 10° SW 21:00:09 10° SW 21:00:09 10° SW visible
17 Feb 3.0 19:09:22 10° SW 19:12:04 17° S 19:14:47 10° SE visible
17 Feb 3.6 20:51:01 10° SW 20:51:21 11° SSW 20:51:21 11° SSW visible
